Weather History for Ithaca, NY

Change the Weather History Date:

Tuesday, March 25, 2014

  Actual Average Record
Temperature  
Mean Temperature 21 °F -  
Max Temperature 36 °F 42 °F 69 °F (2003)
Min Temperature 6 °F 25 °F 6 °F (2014)
Degree Days  
Heating Degree Days 44    
Moisture  
Dew Point 10 °F    
Average Humidity 62    
Maximum Humidity 92    
Minimum Humidity 29    
Precipitation  
Precipitation 0.00 in - - ()
Sea Level Pressure  
Sea Level Pressure 30.00 in    
Wind  
Wind Speed 3 mph (South)    
Max Wind Speed 12 mph    
Max Gust Speed 16 mph    
Visibility 10 miles    
Events Snow    
Averages and records for this station are not official NWS values.
T = Trace of Precipitation, MM = Missing Value Source: NWS Daily Summary

Daily Weather History Graph

Daily Weather History Graph

Search for Another Location

Airport:

Trip Planner

Search our weather history database for the weather conditions in past years. The results will help you decide how hot, cold, wet, or windy it might be!

Date:

Astronomy

Mar. 25, 2014 Rise Set
Actual Time 7:00 AM EDT 7:23 PM EDT
Civil Twilight 6:32 AM EDT 7:52 PM EDT
Nautical Twilight 5:59 AM EDT 8:25 PM EDT
Astronomical Twilight 5:25 AM EDT 8:59 PM EDT
Moon 3:26 AM EDT (3/25) 1:46 PM EDT (3/25)
Length of Visible Light 13h 19m
Length of Day
12h 23m
Waning Crescent, 32% of the Moon is Illuminated
Mar 25
Waning Crescent
Mar 30
New
Apr 7
First Quarter
Apr 15
Full
Apr 22
Last Quarter

Hourly Weather History & Observations

Time (EDT) Temp. Windchill Dew Point Humidity Pressure Visibility Wind Dir Wind Speed Gust Speed Precip Events Conditions
12:56 AM 16.2 °F - 10.0 °F 77% 30.14 in 10.0 mi Calm Calm - N/A   Overcast
1:56 AM 16.2 °F - 10.0 °F 77% 30.12 in 10.0 mi Calm Calm - 0.00 in   Overcast
2:35 AM 15.8 °F - 10.4 °F 79% 30.05 in 10.0 mi Calm Calm - 0.00 in Snow Light Snow
2:56 AM 14.0 °F - 10.0 °F 84% 30.10 in 10.0 mi Calm Calm - 0.00 in   Partly Cloudy
3:56 AM 10.0 °F 3.6 °F 8.1 °F 92% 30.09 in 10.0 mi East 3.5 mph - 0.00 in   Clear
4:56 AM 8.1 °F 1.4 °F 5.0 °F 87% 30.08 in 10.0 mi ESE 3.5 mph - N/A   Clear
5:56 AM 7.2 °F -1.5 °F 5.0 °F 91% 30.07 in 10.0 mi East 4.6 mph - N/A   Partly Cloudy
6:17 AM 6.8 °F -0.1 °F 3.2 °F 85% 30.01 in 10.0 mi East 3.5 mph - N/A   Scattered Clouds
6:56 AM 7.2 °F -3.0 °F 4.1 °F 87% 30.07 in 10.0 mi East 5.8 mph - N/A   Scattered Clouds
7:56 AM 10.0 °F 1.8 °F 7.2 °F 88% 30.07 in 10.0 mi SE 4.6 mph - N/A   Clear
8:56 AM 19.0 °F 11.1 °F 10.0 °F 68% 30.06 in 10.0 mi SSE 5.8 mph - N/A   Partly Cloudy
9:56 AM 23.0 °F 17.0 °F 12.0 °F 63% 30.05 in 10.0 mi South 4.6 mph - N/A   Mostly Cloudy
10:30 AM 26.6 °F 18.2 °F 12.2 °F 55% 29.98 in 10.0 mi South 8.1 mph - N/A   Overcast
10:39 AM 26.6 °F 21.2 °F 12.2 °F 55% 29.98 in 10.0 mi SSW 4.6 mph - N/A   Overcast
10:56 AM 27.1 °F 17.5 °F 12.0 °F 53% 30.03 in 10.0 mi SW 10.4 mph - N/A   Mostly Cloudy
11:56 AM 30.0 °F 21.1 °F 13.1 °F 49% 30.01 in 10.0 mi SSW 10.4 mph - N/A   Mostly Cloudy
12:56 PM 32.9 °F 25.3 °F 10.0 °F 39% 29.99 in 10.0 mi SSW 9.2 mph - N/A   Mostly Cloudy
1:56 PM 34.0 °F 26.6 °F 12.0 °F 40% 29.96 in 10.0 mi South 9.2 mph - N/A   Mostly Cloudy
2:56 PM 34.0 °F 28.0 °F 9.1 °F 36% 29.93 in 10.0 mi South 6.9 mph - N/A   Scattered Clouds
3:56 PM 34.9 °F 29.0 °F 9.1 °F 34% 29.91 in 10.0 mi WSW 6.9 mph 16.1 mph N/A   Mostly Cloudy
4:56 PM 36.0 °F 29.6 °F 7.2 °F 30% 29.89 in 10.0 mi SSW 8.1 mph - N/A   Scattered Clouds
5:56 PM 34.9 °F - 5.0 °F 29% 29.89 in 10.0 mi Calm Calm - N/A   Mostly Cloudy
6:56 PM 34.0 °F - 7.2 °F 33% 29.90 in 10.0 mi Calm Calm - N/A   Mostly Cloudy
7:56 PM 31.1 °F 26.4 °F 10.0 °F 41% 29.91 in 10.0 mi NNW 4.6 mph - N/A   Overcast
8:56 PM 30.0 °F - 15.1 °F 54% 29.92 in 10.0 mi Calm Calm - N/A   Overcast
9:56 PM 27.1 °F 20.7 °F 15.1 °F 60% 29.93 in 10.0 mi NW 5.8 mph - N/A   Scattered Clouds
10:56 PM 26.1 °F 20.5 °F 16.2 °F 66% 29.94 in 10.0 mi North 4.6 mph - N/A   Clear
11:56 PM 26.1 °F 15.6 °F 20.1 °F 78% 29.95 in 10.0 mi North 11.5 mph - N/A   Overcast